OPS 4682 DEB, 38424

Orbit data source: Space-Track

OPS 4682 DEB, 38424 is space debris in LEO originally from a launch on Sat, 03 Apr 1965 UTC launched from the Air Force Western Test Range (AFWTR). Debris objects in space refer to the collection of defunct objects orbiting the Earth. Examples of debris include non-operational satellites, rocket bodies, and fragments generated from explosions, collisions, or faulty payload assembly.

Loading next visibility...
Identifier
38424, 1965-027ED
Orbit
LEO
Country
Flag of USUS
Related business
Manufacturer
Unknown
Mission
Spacecraft
Bus & Motor
Unknown
Mass
Unknown
Launch date (UTC)
1965-04-03 (61 years ago)
Launch vehicle
Unknown
Launch site
Air Force Western Test Range (AFWTR)
Object type
Payload
Rocket body
Debris
Shape & HBR
Unknown shape, 0.1 m
Radar Cross Section
Small (<0.1 m²)

Expand to show TLE details & history
Last TLE update: 3 days ago

TLE from 3 days ago
0 OPS 4682 DEB
1 38424U 65027ED  25290.64878918  .00001140  00000-0  35617-2 0  9990
2 38424  90.2541   1.4471 0027205  77.8150 282.6019 13.03773464280225
Epoch: 2025-10-17T15:34Z
TLE epoch observation values (Epoch: 2025-10-17T15:34:15.385Z)
Latitude
-0.00003°
Longitude
101.49186°
Altitude
1,245.754 km
Speed
7.234 km/s
True Right ascension
00h 05m 47s
True Declination
0° 00' 00"
Sunlit
Object was in full shadow at epoch
Visualization orbit readout
Latitude
Unknown
Longitude
Unknown
Altitude
Unknown
Speed
Unknown
Apparent Right ascension
Unknown
Apparent Declination
Unknown
Sunlit
N/A
Visualization observer readout
Local Sidereal Time
08:25:54
Azimuth
Unknown
Elevation
Unknown
Doppler factor
Unknown
Orbital elements
Apogee altitude
1,265.196 km
Perigee altitude
1,223.722 km
Semi-major axis
7,622.596 km
Eccentricity
0.00272
Inclination
90.2541°
RAAN
1.4471°
Arg. of periapsis
77.815°
True anomaly
282.29744°
Mean anomaly
282.6019°
Eccentric anomaly
282.44969°
Mean motion
3.26129 °/min
Orbital period
110.39 mins
BSTAR
0.0035617
Loading maneuver chart data...
Computing Atmospheric mass density...
Loading historical data...
Loading historical data...
Loading historical data...
Loading historical data...
Loading historical data...
Loading historical data...
Loading historical data...

Documentation

Showing up to 5 results
|